Lid_Strength_Index
9 8 8 9 8 7 8 7 2 2 1 2 2 2 2 2 1 1 0 0 0 -0 0 0 1 1 2 2 2 2 3 2 2 3 3 2 2 2 1 1 2 2 2
10 8 8 7 5 5 5 6 2 2 1 1 1 1 1 1 1 1 0 0 0 -0 0 0 2 2 2 1 2 2 3 3 2 3 3 5 3 2 2 2 2 3 2
10 9 8 7 4 3 3 3 2 2 1 1 1 3 3 3 2 2 2 1 1 1 1 1 2 2 2 2 2 2 2 3 2 3 4 6 6 4 3 2 2 3 3
6 6 8 7 4 3 3 3 2 2 2 2 2 2 3 3 3 2 1 1 1 1 1 2 1 2 2 2 1 2 2 2 3 2 3 3 3 5 6 2 2 2 3
7 7 6 8 3 4 5 5 4 5 5 5 3 4 4 4 3 2 2 2 2 2 1 1 2 1 2 2 1 2 2 2 2 3 3 4 4 4 5 6 4 3 3
7 6 5 4 4 6 6 6 4 4 3 3 3 3 3 3 3 3 2 2 2 2 1 2 2 1 1 2 2 2 2 2 2 3 3 3 4 5 4 6 4 4 3
7 6 5 5 5 6 4 4 4 3 3 3 3 3 3 2 3 3 3 3 2 2 2 2 2 1 2 2 2 2 2 2 2 2 3 3 2 4 3 3 4 5 4
7 7 5 5 6 5 6 5 5 5 5 5 5 4 4 3 2 2 3 2 2 2 3 2 2 1 1 1 1 2 2 1 2 2 2 2 2 2 3 3 4 5 5
6 7 5 5 6 5 6 6 6 6 5 5 4 4 4 4 3 2 2 2 2 2 2 3 1 1 1 1 1 1 2 1 2 2 3 3 3 2 3 3 3 4 6
6 6 5 5 5 6 6 6 6 7 6 6 5 5 5 5 4 4 4 3 2 2 2 2 2 1 1 1 1 1 1 2 2 2 3 3 2 2 3 3 2 3 4
7 8 9 8 7 7 7 8 8 8 7 7 7 7 6 6 5 5 5 5 3 3 2 2 2 1 2 2 1 1 1 2 2 2 3 3 2 2 2 1 2 3 3
8 9 10 12 10 9 9 9 9 9 8 8 8 8 8 7 7 7 6 6 5 4 3 3 1 1 1 1 1 2 2 2 2 2 2 2 2 2 1 1 2 2 3
10 10 11 13 14 12 11 11 11 11 10 9 9 9 9 9 9 8 8 7 6 6 5 4 3 1 1 2 2 2 2 2 2 2 2 2 2 2 2 2 2 2 3
10 10 12 13 14 13 13 12 12 12 12 10 10 11 11 11 10 9 9 8 8 7 7 5 4 3 1 1 2 2 2 2 2 2 2 2 2 2 2 2 2 3 3
11 11 11 12 12 13 13 13 13 13 12 12 12 12 12 12 11 10 9 9 8 8 8 8 6 4 3 1 1 2 2 2 3 2 2 2 3 6 5 3 2 3 3
12 12 12 12 13 13 14 14 14 14 13 14 14 13 14 13 12 11 10 9 9 7 8 9 8 7 5 7 8 5 3 3 3 4 3 3 7 7 8 9 8 5 6
12 13 13 13 13 14 14 15 15 14 15 15 15 15 15 14 13 12 11 10 10 9 8 8 8 8 6 8 8 9 3 3 4 4 4 6 6 7 5 10 10 10 10
13 14 14 14 14 14 15 15 14 15 15 15 15 15 15 14 13 12 12 11 11 11 10 9 7 8 8 10 10 10 5 4 5 6 8 6 10 10 8 10 12 13 10
13 13 13 14 14 15 15 15 15 16 16 16 16 15 15 15 14 14 13 12 12 12 11 9 8 8 9 10 11 12 7 10 12 13 14 12 12 12 10 11 13 15 15
13 14 14 14 14 15 15 15 15 15 16 16 16 15 15 15 14 13 13 12 12 12 11 10 10 10 11 11 11 12 8 11 13 14 15 14 14 14 13 11 13 14 14
14 14 14 15 15 15 15 16 16 16 15 15 15 14 14 14 14 13 13 13 13 13 12 11 11 11 12 12 11 11 12 12 14 14 16 16 15 14 13 13 13 13 15
14 15 15 15 15 15 16 16 16 15 15 15 15 15 15 14 14 15 15 14 14 14 12 12 12 12 13 12 12 12 13 13 15 15 16 16 14 15 15 15 15 15 15
15 15 15 15 15 15 15 16 15 15 15 15 15 15 15 15 15 16 16 15 15 15 15 14 13 12 13 13 13 12 14 15 16 16 16 15 15 16 16 16 16 16 15
15 15 16 16 16 16 15 15 14 14 15 16 17 16 17 16 17 17 17 17 16 16 15 15 15 13 14 15 14 14 14 15 15 16 17 18 17 17 17 18 17 17 16
15 15 16 16 17 16 16 15 15 15 16 16 18 18 18 19 18 17 18 17 17 15 15 15 14 13 14 15 14 15 15 17 18 19 19 19 19 20 19 19 19 19 19
16 16 16 16 17 17 17 16 15 15 16 17 18 18 18 19 19 19 18 15 14 13 14 13 13 13 13 14 14 14 15 16 17 19 20 21 20 21 20 21 21 20 21